CW8248 Weather Reports


Display with metric or nautical units.
time (UTC)temp
F
wind
direction
speed
MPH
gust
MPH
rain 1hr
in
rain 24hr
in
rain mn
in
humidity
%
barometer
mb
20260507214607 72 248 11.0 18.0 0.00 0.00 0.00 24 1015.7
20260507214102 72 260 10.0 19.0 0.00 0.00 0.00 29 1015.8
20260507213559 72 240 10.0 19.0 0.00 0.00 0.00 30 1015.8
20260507213101 71 254 9.0 19.0 0.00 0.00 0.00 28 1015.9
20260507212558 72 191 9.0 18.0 0.00 0.00 0.00 30 1015.9
20260507212102 72 238 10.0 18.0 0.00 0.00 0.00 27 1015.8
20260507211601 71 233 7.0 18.0 0.00 0.00 0.00 32 1015.9
20260507211056 71 292 6.0 16.0 0.00 0.00 0.00 30 1016.0
20260507210556 69 242 6.0 17.0 0.00 0.00 0.00 29 1016.1
20260507205553 70 249 6.0 16.0 0.00 0.00 0.00 31 1016.2
20260507205052 70 191 5.0 21.0 0.00 0.00 0.00 33 1016.3
20260507204552 70 265 6.0 14.0 0.00 0.00 0.00 35 1016.3
20260507204055 70 243 5.0 12.0 0.00 0.00 0.00 36 1016.3
20260507203551 69 258 3.0 16.0 0.00 0.00 0.00 35 1016.4
20260507203103 69 273 7.0 17.0 0.00 0.00 0.00 35 1016.4
20260507202548 69 191 8.0 17.0 0.00 0.00 0.00 40 1016.5
20260507202048 68 257 7.0 18.0 0.00 0.00 0.00 38 1016.6
20260507201556 67 191 9.0 19.0 0.00 0.00 0.00 38 1016.7
20260507201047 67 274 10.0 18.0 0.00 0.00 0.00 40 1016.8
20260507200546 67 263 9.0 21.0 0.00 0.00 0.00 42 1016.8
20260507195545 68 250 11.0 17.0 0.00 0.00 0.00 43 1017.0
20260507195045 68 246 12.0 23.0 0.00 0.00 0.00 42 1017.0
20260507194544 68 237 10.0 19.0 0.00 0.00 0.00 44 1017.1
20260507194042 68 242 11.0 21.0 0.00 0.00 0.00 45 1017.0
20260507193542 67 237 11.0 21.0 0.00 0.00 0.00 44 1017.0
20260507193046 67 257 9.0 16.0 0.00 0.00 0.00 41 1017.1
20260507192540 67 240 11.0 20.0 0.00 0.00 0.00 43 1017.1
20260507192040 67 250 13.0 23.0 0.00 0.00 0.00 36 1017.2
20260507191538 66 246 14.0 23.0 0.00 0.00 0.00 39 1017.3
20260507191037 66 245 13.0 24.0 0.00 0.00 0.00 36 1017.3
20260507190540 66 254 17.0 26.0 0.00 0.00 0.00 37 1017.2
20260507190037 66 262 15.0 26.0 0.00 0.00 0.00 38 1017.2
20260507185539 66 262 14.0 23.0 0.00 0.00 0.00 37 1017.2
20260507185034 65 249 15.0 23.0 0.00 0.00 0.00 38 1017.3
20260507184534 65 236 12.0 23.0 0.00 0.00 0.00 38 1017.3
20260507184035 65 271 13.0 23.0 0.00 0.00 0.00 41 1017.4
20260507183531 64 233 14.0 22.0 0.00 0.00 0.00 40 1017.3
20260507183029 64 260 9.0 22.0 0.00 0.00 0.00 54 1017.5
20260507182528 63 254 15.0 25.0 0.00 0.00 0.00 44 1017.6
20260507182027 63 261 16.0 24.0 0.00 0.00 0.00 42 1017.6
20260507181530 63 277 16.0 24.0 0.00 0.00 0.00 44 1017.7
20260507181025 63 250 14.0 25.0 0.00 0.00 0.00 44 1017.5
20260507180525 63 191 12.0 22.0 0.00 0.00 0.00 43 1017.7
20260507180027 63 230 13.0 22.0 0.00 0.00 0.00 46 1017.6
20260507175523 63 226 14.0 19.0 0.00 0.00 0.00 49 1017.7
20260507175020 63 265 11.0 18.0 0.00 0.00 0.00 50 1017.8
20260507174520 62 269 11.0 19.0 0.00 0.00 0.00 51 1017.8
20260507174017 62 247 10.0 22.0 0.00 0.00 0.00 53 1017.8
20260507173516 61 230 15.0 26.0 0.00 0.00 0.00 49 1017.8
20260507173029 61 235 12.0 23.0 0.00 0.00 0.00 50 1017.9
20260507172515 60 239 14.0 23.0 0.00 0.00 0.00 52 1018.0
20260507172014 61 265 12.0 22.0 0.00 0.00 0.00 51 1018.0
20260507171512 60 237 9.0 25.0 0.00 0.00 0.00 50 1018.2
20260507171012 60 253 11.0 25.0 0.00 0.00 0.00 50 1018.1
20260507170511 60 271 10.0 22.0 0.00 0.00 0.00 53 1018.2
20260507170010 59 233 9.0 21.0 0.00 0.00 0.00 53 1018.3
20260507165510 59 249 10.0 23.0 0.00 0.00 0.00 56 1018.3
20260507165010 59 250 11.0 24.0 0.00 0.00 0.00 52 1018.3
20260507164507 59 252 11.0 19.0 0.00 0.00 0.00 54 1018.3
20260507164005 58 191 10.0 25.0 0.00 0.00 0.00 56 1018.3
20260507163503 58 260 12.0 25.0 0.00 0.00 0.00 56 1018.3
20260507163002 58 277 11.0 24.0 0.00 0.00 0.00 56 1018.4
20260507162502 58 255 9.0 19.0 0.00 0.00 0.00 58 1018.5
20260507162001 57 259 9.0 21.0 0.00 0.00 0.00 59 1018.5
20260507161604 57 255 12.0 21.0 0.00 0.00 0.00 56 1018.6
20260507161100 57 250 10.0 17.0 0.00 0.00 0.00 59 1018.6
20260507160600 57 244 10.0 23.0 0.00 0.00 0.00 59 1018.7
20260507160059 57 191 7.0 23.0 0.00 0.00 0.00 59 1018.8
20260507155558 56 221 8.0 22.0 0.00 0.00 0.00 59 1018.8
20260507155106 56 272 11.0 18.0 0.00 0.00 0.00 60 1018.7
20260507154559 56 273 8.0 18.0 0.00 0.00 0.00 64 1018.8
20260507154059 55 267 11.0 18.0 0.00 0.00 0.00 65 1018.9
20260507153554 55 244 10.0 19.0 0.00 0.00 0.00 64 1018.9
20260507153053 55 273 9.0 19.0 0.00 0.00 0.00 67 1019.1
20260507152553 54 258 10.0 23.0 0.00 0.00 0.00 66 1019.0
20260507152050 54 254 9.0 23.0 0.00 0.00 0.00 67 1019.0
20260507151549 54 244 13.0 23.0 0.00 0.00 0.00 66 1019.1
20260507151047 54 258 12.0 23.0 0.00 0.00 0.00 67 1019.1
20260507150547 54 247 10.0 16.0 0.00 0.00 0.00 68 1019.1
20260507150045 53 267 9.0 16.0 0.00 0.00 0.00 69 1019.2
20260507145544 53 246 6.0 16.0 0.00 0.00 0.00 69 1019.3
20260507145042 53 259 9.0 15.0 0.00 0.00 0.00 68 1019.2
20260507144543 53 243 9.0 16.0 0.00 0.00 0.00 69 1019.2
20260507144040 53 233 10.0 15.0 0.00 0.00 0.00 69 1019.2
20260507143539 52 244 9.0 17.0 0.00 0.00 0.00 69 1019.2
20260507143038 52 224 11.0 17.0 0.00 0.00 0.00 70 1019.1
20260507142538 52 243 9.0 16.0 0.00 0.00 0.00 70 1019.1
20260507142035 52 239 11.0 16.0 0.00 0.00 0.00 71 1019.1
20260507141533 52 235 8.0 16.0 0.00 0.00 0.00 72 1019.0
20260507141035 52 235 10.0 15.0 0.00 0.00 0.00 72 1019.0
20260507140531 52 217 6.0 13.0 0.00 0.00 0.00 71 1018.9
20260507140032 52 214 8.0 16.0 0.00 0.00 0.00 71 1018.8
20260507135528 52 233 9.0 16.0 0.00 0.00 0.00 71 1018.7
20260507135028 52 217 6.0 10.0 0.00 0.00 0.00 70 1018.8
20260507134528 52 162 5.0 9.0 0.00 0.00 0.00 70 1018.8
20260507134027 52 175 3.0 9.0 0.00 0.00 0.00 68 1018.7
20260507133526 52 162 1.0 8.0 0.00 0.00 0.00 69 1018.7
20260507133026 52 241 0.0 8.0 0.00 0.00 0.00 68 1018.7
20260507132526 52 163 0.0 4.0 0.00 0.00 0.00 69 1018.6
20260507132023 51 168 0.0 5.0 0.00 0.00 0.00 70 1018.7
20260507131528 51 196 3.0 5.0 0.00 0.00 0.00 70 1018.7
20260507131023 51 260 0.0 5.0 0.00 0.00 0.00 70 1018.7
20260507130522 51 4 0.0 5.0 0.00 0.00 0.00 70 1018.7
20260507130020 51 38 1.0 5.0 0.00 0.00 0.00 70 1018.6
20260507125520 52 332 0.0 6.0 0.00 0.00 0.00 70 1018.6
20260507125019 51 337 2.0 6.0 0.00 0.00 0.00 70 1018.5
20260507124528 52 21 1.0 5.0 0.00 0.00 0.00 70 1018.5
20260507124019 52 244 0.0 7.0 0.00 0.00 0.00 71 1018.5
20260507123519 52 355 2.0 8.0 0.00 0.00 0.00 71 1018.5
20260507123018 52 300 2.0 13.0 0.00 0.00 0.00 70 1018.4
20260507122521 52 191 1.0 9.0 0.00 0.00 0.00 71 1018.5
20260507122021 52 123 1.0 10.0 0.00 0.00 0.00 70 1018.4
20260507121517 52 191 3.0 10.0 0.00 0.00 0.00 71 1018.5
20260507121017 52 121 2.0 9.0 0.00 0.00 0.00 71 1018.6
20260507120514 52 191 3.0 12.0 0.00 0.00 0.00 70 1018.5
20260507120017 52 254 2.0 12.0 0.00 0.00 0.00 70 1018.4
20260507115514 52 246 2.0 7.0 0.00 0.00 0.00 69 1018.4
20260507115013 52 356 0.0 4.0 0.00 0.00 0.00 69 1018.3
20260507114513 53 2 0.0 4.0 0.00 0.00 0.00 69 1018.4
20260507114012 53 265 0.0 10.0 0.00 0.00 0.00 70 1018.2
20260507113513 53 254 1.0 8.0 0.00 0.00 0.00 69 1018.4
20260507113015 53 271 1.0 8.0 0.00 0.00 0.00 69 1018.4
20260507112514 53 191 3.0 8.0 0.00 0.00 0.00 69 1018.4
20260507112010 53 269 2.0 9.0 0.00 0.00 0.00 69 1018.3
20260507111509 54 250 1.0 9.0 0.00 0.00 0.00 68 1018.1
20260507111008 53 246 0.0 8.0 0.00 0.00 0.00 68 1018.2
20260507110508 53 252 1.0 11.0 0.00 0.00 0.00 69 1018.2
20260507110008 54 261 1.0 11.0 0.00 0.00 0.00 69 1018.0
20260507105505 54 238 1.0 9.0 0.00 0.00 0.00 68 1018.2
20260507105010 54 245 3.0 9.0 0.00 0.00 0.00 68 1018.1
20260507104506 54 246 3.0 13.0 0.00 0.00 0.00 68 1018.0
20260507104005 54 240 4.0 13.0 0.00 0.00 0.00 68 1017.8
20260507103504 54 240 3.0 11.0 0.00 0.00 0.00 67 1017.9
20260507103003 54 215 5.0 12.0 0.00 0.00 0.00 68 1017.9
20260507102502 54 191 2.0 11.0 0.00 0.00 0.00 67 1017.9
20260507102101 55 271 4.0 11.0 0.00 0.00 0.00 67 1018.0
20260507101613 55 257 5.0 9.0 0.00 0.00 0.00 66 1018.0
20260507101100 55 266 3.0 9.0 0.00 0.00 0.00 66 1018.1
20260507100557 55 250 2.0 12.0 0.00 0.00 0.00 66 1018.0
20260507095556 56 241 4.0 10.0 0.00 0.00 0.00 64 1017.9
20260507095056 56 246 1.0 12.0 0.00 0.00 0.00 64 1017.9
20260507094604 56 341 5.0 12.0 0.00 0.00 0.00 63 1018.0
20260507094059 56 237 2.0 8.0 0.00 0.00 0.00 64 1017.9
20260507093554 56 15 3.0 11.0 0.00 0.00 0.00 64 1018.0
20260507093055 56 220 3.0 11.0 0.00 0.00 0.00 64 1018.1
20260507092554 57 217 2.0 12.0 0.00 0.00 0.00 64 1018.0
20260507092058 57 253 5.0 12.0 0.00 0.00 0.00 64 1017.9
20260507091553 57 211 1.0 16.0 0.00 0.00 0.00 64 1017.9
20260507091053 57 237 3.0 16.0 0.00 0.00 0.00 64 1017.9
20260507090553 57 265 5.0 10.0 0.00 0.00 0.00 64 1018.0
20260507090053 57 273 3.0 8.0 0.00 0.00 0.00 65 1018.0
20260507085553 57 264 0.0 10.0 0.00 0.00 0.00 64 1018.0
20260507085053 58 249 4.0 10.0 0.00 0.00 0.00 64 1018.1
20260507084558 58 262 2.0 11.0 0.00 0.00 0.00 64 1018.1
20260507084054 58 237 2.0 15.0 0.00 0.00 0.00 63 1018.2
20260507083551 58 257 7.0 13.0 0.00 0.00 0.00 65 1018.1
20260507083052 58 265 7.0 13.0 0.00 0.00 0.00 64 1018.0
20260507082550 57 223 3.0 15.0 0.00 0.00 0.00 64 1018.1
20260507082049 57 191 6.0 16.0 0.00 0.00 0.00 65 1018.2
20260507081548 57 244 8.0 16.0 0.00 0.00 0.00 67 1018.1
20260507081047 57 237 6.0 15.0 0.00 0.00 0.00 67 1018.1
20260507080547 57 227 6.0 12.0 0.00 0.00 0.00 67 1018.1
20260507080057 57 11 3.0 9.0 0.00 0.00 0.00 68 1018.3
20260507075545 57 223 2.0 11.0 0.00 0.00 0.00 68 1018.3
20260507075045 57 231 2.0 11.0 0.00 0.00 0.00 68 1018.2
20260507074545 57 242 2.0 11.0 0.00 0.00 0.00 67 1018.2
20260507074044 57 240 3.0 13.0 0.00 0.00 0.00 66 1018.2
20260507073544 57 244 5.0 11.0 0.00 0.00 0.00 67 1018.2
20260507073048 57 265 4.0 11.0 0.00 0.00 0.00 66 1018.2
20260507072543 57 248 5.0 12.0 0.00 0.00 0.00 67 1018.1
20260507072041 57 273 6.0 12.0 0.00 0.00 0.00 67 1018.1
20260507071540 57 256 3.0 11.0 0.00 0.00 0.00 69 1018.2
20260507071043 56 265 4.0 12.0 0.00 0.00 0.00 71 1018.1
20260507070537 57 245 6.0 12.0 0.00 0.00 0.00 69 1018.2
20260507070037 57 234 3.0 10.0 0.00 0.00 0.00 69 1018.2
20260507065538 57 248 3.0 7.0 0.00 0.00 0.00 68 1018.2
20260507065036 57 240 0.0 8.0 0.00 0.00 0.00 68 1018.3
20260507064536 57 243 2.0 5.0 0.00 0.00 0.00 68 1018.3
20260507064036 57 235 1.0 5.0 0.00 0.00 0.00 69 1018.3
20260507063536 57 248 1.0 5.0 0.00 0.00 0.00 68 1018.3
20260507063037 57 225 0.0 6.0 0.00 0.00 0.00 69 1018.3
20260507062536 58 225 1.0 7.0 0.00 0.00 0.00 68 1018.3
20260507062036 58 223 1.0 7.0 0.00 0.00 0.00 67 1018.3
20260507061535 58 325 0.0 5.0 0.00 0.00 0.00 67 1018.4
20260507061034 58 137 2.0 8.0 0.00 0.00 0.00 68 1018.3
20260507060534 58 236 2.0 8.0 0.00 0.00 0.00 68 1018.3
20260507060035 57 221 0.0 6.0 0.00 0.00 0.00 69 1018.3
20260507055535 57 213 0.0 9.0 0.00 0.00 0.00 69 1018.2
20260507055034 57 242 4.0 10.0 0.00 0.00 0.00 69 1018.3
20260507054538 58 252 6.0 11.0 0.00 0.00 0.00 68 1018.3
20260507054034 58 232 7.0 11.0 0.00 0.00 0.00 67 1018.4
20260507053534 59 225 2.0 9.0 0.00 0.00 0.00 66 1018.5
20260507053035 59 244 5.0 9.0 0.00 0.00 0.00 65 1018.5
20260507052534 59 223 3.0 10.0 0.00 0.00 0.00 64 1018.5
20260507052034 59 244 3.0 10.0 0.00 0.00 0.00 66 1018.6
20260507051534 60 229 2.0 9.0 0.00 0.00 0.00 64 1018.6
20260507051033 61 196 4.0 6.0 0.00 0.00 0.00 61 1018.5
20260507050533 61 251 2.0 7.0 0.00 0.00 0.00 57 1018.6
20260507050034 61 333 3.0 14.0 0.00 0.00 0.00 57 1018.6
20260507045533 61 13 2.0 14.0 0.00 0.00 0.00 58 1018.5
20260507045033 61 322 0.0 6.0 0.00 0.00 0.00 58 1018.6
20260507044532 61 75 1.0 6.0 0.00 0.00 0.00 60 1018.4
20260507044031 61 240 0.0 4.0 0.00 0.00 0.00 60 1018.5
20260507043531 62 191 0.0 9.0 0.00 0.00 0.00 57 1018.5
20260507043031 62 17 2.0 9.0 0.00 0.00 0.00 57 1018.4
20260507042532 61 191 2.0 7.0 0.00 0.00 0.00 58 1018.5
20260507042030 61 46 1.0 7.0 0.00 0.00 0.00 59 1018.3
20260507041529 62 227 3.0 8.0 0.00 0.00 0.00 58 1018.2
20260507041029 62 354 3.0 8.0 0.00 0.00 0.00 58 1018.2
20260507040529 62 82 2.0 5.0 0.00 0.00 0.00 58 1018.2
20260507040029 62 73 1.0 6.0 0.00 0.00 0.00 58 1017.9
20260507035529 62 27 3.0 6.0 0.00 0.00 0.00 58 1018.1
20260507035029 62 144 2.0 5.0 0.00 0.00 0.00 58 1017.9
20260507034529 62 144 0.0 5.0 0.00 0.00 0.00 57 1017.9
20260507034028 62 62 0.0 6.0 0.00 0.00 0.00 58 1017.8
20260507033528 62 138 2.0 9.0 0.00 0.00 0.00 57 1017.8
20260507033031 62 155 4.0 9.0 0.00 0.00 0.00 57 1017.7
20260507032528 62 135 0.0 8.0 0.00 0.00 0.00 57 1017.7
20260507032028 62 135 1.0 12.0 0.00 0.00 0.00 58 1017.6
20260507031527 62 261 6.0 12.0 0.00 0.00 0.00 57 1017.7
20260507031028 62 221 0.0 7.0 0.00 0.00 0.00 57 1017.6
20260507030528 62 186 2.0 9.0 0.00 0.00 0.00 59 1017.6
20260507030028 62 235 5.0 10.0 0.00 0.00 0.00 58 1017.6
20260507025527 62 191 3.0 10.0 0.00 0.00 0.00 58 1017.6
20260507025028 63 217 4.0 10.0 0.00 0.00 0.00 58 1017.5
20260507024527 63 232 1.0 8.0 0.00 0.00 0.00 57 1017.6
20260507024028 63 148 2.0 8.0 0.00 0.00 0.00 57 1017.5
20260507023526 63 237 1.0 5.0 0.00 0.00 0.00 56 1017.4
20260507023027 63 191 1.0 7.0 0.00 0.00 0.00 57 1017.4
20260507022526 64 62 0.0 10.0 0.00 0.00 0.00 55 1017.3
20260507022026 64 259 4.0 10.0 0.00 0.00 0.00 54 1017.3
20260507021526 64 191 2.0 10.0 0.00 0.00 0.00 53 1017.3
20260507021026 64 191 3.0 18.0 0.00 0.00 0.00 55 1017.3
20260507020526 65 191 3.0 19.0 0.00 0.00 0.00 53 1017.3
20260507020030 65 359 3.0 16.0 0.00 0.00 0.00 53 1017.3
20260507015525 65 191 5.0 16.0 0.00 0.00 0.00 51 1017.2
20260507015025 65 248 4.0 12.0 0.00 0.00 0.00 52 1017.2
20260507014530 65 323 2.0 18.0 0.00 0.00 0.00 53 1017.2
20260507014026 65 327 5.0 18.0 0.00 0.00 0.00 52 1017.1
20260507013526 65 245 5.0 19.0 0.00 0.00 0.00 53 1017.1
20260507013041 65 191 4.0 20.0 0.00 0.00 0.00 52 1017.2
20260507012526 65 262 6.0 20.0 0.00 0.00 0.00 51 1017.2
20260507012025 65 248 5.0 16.0 0.00 0.00 0.00 51 1017.2
20260507011525 65 269 7.0 19.0 0.00 0.00 0.00 52 1017.2
20260507011025 65 252 9.0 28.0 0.00 0.00 0.00 51 1017.2
20260507010524 66 250 8.0 17.0 0.00 0.00 0.00 52 1017.3
20260507010032 66 221 8.0 19.0 0.00 0.00 0.00 51 1017.2
20260507005523 65 259 8.0 24.0 0.00 0.00 0.00 52 1017.2
20260507005023 65 242 7.0 24.0 0.00 0.00 0.00 51 1017.4
20260507004524 65 235 8.0 23.0 0.00 0.00 0.00 53 1017.3
20260507004024 65 265 9.0 26.0 0.00 0.00 0.00 52 1017.2
20260507003523 65 242 13.0 26.0 0.00 0.00 0.00 52 1017.1
20260507003028 65 191 8.0 23.0 0.00 0.00 0.00 52 1017.1
20260507002522 65 227 8.0 19.0 0.00 0.00 0.00 53 1017.1
20260507002023 64 191 6.0 17.0 0.00 0.00 0.00 53 1017.1
20260507001522 64 271 9.0 25.0 0.00 0.00 0.00 53 1017.1
20260507001021 65 254 9.0 20.0 0.00 0.00 0.00 53 1017.0
20260507000521 65 260 7.0 20.0 0.00 0.00 0.00 52 1017.1
20260507000022 65 191 9.0 21.0 0.00 0.00 0.00 52 1017.1
20260506235523 65 242 8.0 21.0 0.00 0.00 0.00 52 1017.0
20260506235021 65 247 4.0 13.0 0.00 0.00 0.00 52 1017.1
20260506234521 65 310 6.0 19.0 0.00 0.00 0.00 53 1017.1
20260506234021 65 253 8.0 17.0 0.00 0.00 0.00 52 1017.1
20260506233521 65 269 9.0 17.0 0.00 0.00 0.00 52 1017.0
20260506233021 65 260 7.0 20.0 0.00 0.00 0.00 53 1017.1
20260506232520 65 267 10.0 20.0 0.00 0.00 0.00 52 1017.0
20260506232020 65 261 8.0 18.0 0.00 0.00 0.00 53 1017.1
20260506231520 65 253 10.0 18.0 0.00 0.00 0.00 53 1017.0
20260506231019 65 272 5.0 13.0 0.00 0.00 0.00 52 1017.0
20260506230519 66 191 8.0 17.0 0.00 0.00 0.00 52 1017.1
20260506230020 66 248 5.0 17.0 0.00 0.00 0.00 51 1017.0
20260506225519 66 244 6.0 13.0 0.00 0.00 0.00 50 1017.0
20260506225019 66 265 6.0 19.0 0.00 0.00 0.00 50 1017.0
20260506224519 66 272 5.0 15.0 0.00 0.00 0.00 50 1017.0
20260506224018 67 265 8.0 16.0 0.00 0.00 0.00 51 1017.0
20260506223518 67 252 5.0 18.0 0.00 0.00 0.00 49 1017.0
20260506223018 67 245 6.0 18.0 0.00 0.00 0.00 49 1017.1
20260506222518 67 191 5.0 19.0 0.00 0.00 0.00 49 1017.1
20260506222021 67 267 5.0 19.0 0.00 0.00 0.00 50 1017.1
20260506221518 68 273 7.0 17.0 0.00 0.00 0.00 49 1017.1
20260506221017 68 307 8.0 19.0 0.00 0.00 0.00 48 1017.0
20260506220518 69 263 8.0 24.0 0.00 0.00 0.00 48 1017.1
20260506220018 69 249 9.0 24.0 0.00 0.00 0.00 49 1016.9
20260506215517 70 254 10.0 21.0 0.00 0.00 0.00 48 1016.9